Regional Weather Roundup
Issued by NWS

Home | Current Version | Previous Version | Text Only | Print | Product List | Glossary Off
Versions: 1 2 3 4 5 6 7 8 9 10 11 12 13 14 15 16 17 18 19 20 21 22 23 24 25 26 27 28 29 30 31 32 33 34 35 36 37 38 39 40 41 42 43 44 45 46 47 48 49 50

000
ASUS43 KMPX 292001
RWRMN
WEATHER ROUNDUP FOR MINNESOTA
NATIONAL WEATHER SERVICE TWIN CITIES/CHANHASSEN MN
300 PM CDT SAT AUG 29 2015


NOTE: "FAIR" INDICATES FEW OR NO CLOUDS BELOW 12,000 FEET WITH NO
SIGNIFICANT WEATHER AND/OR OBSTRUCTIONS TO VISIBILITY. N/A MEANS
CURRENT SKY AND/OR WEATHER CONDITIONS ARE NOT AVAILABLE.

MNZ060>063-068>070-292100-
   Twin Cities Metro

CITY           SKY/WX    TMP DP  RH WIND       PRES   REMARKS
TWIN CITIES    PTSUNNY   72  61  68 VRB5      30.04F
ST PAUL        SUNNY     70  61  73 E7        30.05F
CRYSTAL        SUNNY     73  60  63 S7        30.03F
BLAINE         PTSUNNY   73  63  68 S5        30.04F
LAKEVILLE      SUNNY     72  63  73 CALM      30.05S
EDEN PRAIRIE   SUNNY     72  61  68 VRB3      30.04F
SOUTH ST PAUL  SUNNY     70  60  72 SE5       30.05F
LAKE ELMO      FAIR      70  63  78 S5        30.06F
$$
MNZ001>005-007-008-013>017-022>024-027-028-292100-
   Northwest Minnesota

CITY           SKY/WX    TMP DP  RH WIND       PRES   REMARKS
BEMIDJI        PTSUNNY   77  67  70 S5        29.97S
HALLOCK        CLOUDY    77  70  78 S14       29.88F
ROSEAU         CLOUDY    72  66  83 SE8       29.92F
WARROAD        CLOUDY    72  66  83 S5        29.93F
THIEF RVR FALL PTSUNNY  N/A N/A N/A S10       29.91F
CROOKSTON      PTSUNNY   79  66  65 SW13      29.91S
FOSSTON        PTSUNNY   77  64  65 S10G17    29.95F
DETROIT LAKES  MOSUNNY   77  64  65 S12       29.98S
MOORHEAD       MOSUNNY   81  66  61 S15       29.93F
PARK RAPIDS    PTSUNNY   79  64  60 S12       29.98F
MAHNOMEN       FAIR      78  66  66 SW13      29.95S
$$
MNZ006-009>011-018-025>026-292100-
   North Central Minnesota

CITY           SKY/WX    TMP DP  RH WIND       PRES   REMARKS
BAUDETTE       CLOUDY    71  65  81 S8        29.94F
FLAG ISLAND    CLOUDY    68  66  94 S9        29.92S
INTL FALLS     CLOUDY    72  66  81 CALM      29.96F
WASKISH        CLOUDY    75  66  73 SE6       29.95F
BIG FORK       CLOUDY    75  64  69 S5        29.99S
LONGVILLE      CLOUDY    75  64  69 S10       29.99F
GRAND RAPIDS     N/A     73  63  68 S12       30.00F
CRANE LAKE     CLOUDY    70  64  83 SE2       29.99F
COOK           CLOUDY    70  63  78 SW5       30.00S
WALKER         FAIR      74  64  72 S7        29.98F
$$
MNZ012-019>021-037-292100-
   Northeast Minnesota

CITY           SKY/WX    TMP DP  RH WIND       PRES   REMARKS
DULUTH         PTSUNNY   74  61  63 SW10      30.02F
ELY            PTSUNNY   72  63  73 CALM      29.99F
HIBBING        CLOUDY    73  63  70 SW3       30.00F
EVELETH        PTSUNNY   72  63  73 S7        30.02S
DULUTH HARBOR  CLOUDY    73  63  68 CALM      30.00F
TWO HARBORS    MOSUNNY   77  66  69 SW8       29.99F
SILVER BAY     SUNNY     79  63  57 SW5       29.98F
GRAND MARAIS     N/A     55  51  86 SW6       29.98S
G MARAIS ARPRT PTSUNNY   72  59  64 CALM      30.02F
$$
MNZ029>031-032-039>041-046>048-054>057-064-292100-
   West Central Minnesota

CITY           SKY/WX    TMP DP  RH WIND       PRES   REMARKS
FERGUS FALLS   MOSUNNY   77  64  65 S13       29.95F
WHEATON        MOSUNNY   77  66  69 S13       29.97F
MORRIS         MOSUNNY   73  63  68 S9        29.99S
ALEXANDRIA     PTSUNNY   74  60  61 S10       30.03F
ELBOW LAKE     FAIR      74  64  70 S13       29.98F
WADENA         PTSUNNY   73  63  68 S9        29.99F
GLENWOOD       CLOUDY    73  61  64 S9        30.03S
APPLETON       PTSUNNY   77  63  61 S9        29.99S
BENSON         CLOUDY    75  61  60 S9        30.00F
ORTONVILLE     MOSUNNY   77  64  65 SE7       29.98F
MADISON        PTSUNNY   79  61  53 S9        29.99F
WILLMAR        FAIR      73  63  68 S6        30.04F
$$
MNZ033>034-036-042>043-049>051-058-059-292100-
   Central Minnesota

CITY           SKY/WX    TMP DP  RH WIND       PRES   REMARKS
ST CLOUD       MOSUNNY   73  61  65 S8        30.03S
SAUK CENTRE    FAIR      73  61  65 S7        30.03F
PAYNESVILLE    PTSUNNY   72  60  66 SE6       30.04F
AITKIN         PTSUNNY   73  63  68 S7        30.01F
PINE RIVER     CLOUDY    73  64  73 S7        30.03F
BRAINERD       CLOUDY    73  62  68 S7        30.02S
STAPLES        CLOUDY    73  61  64 S7        30.01S
LONG PRAIRIE   FAIR      73  61  64 SE10      30.02F
LITTLE FALLS   PTSUNNY   72  57  60 S5        30.03F
LITCHFIELD     MOSUNNY   73  64  73 S3        30.04F
BUFFALO        SUNNY     69  60  74 SW6       30.06S
MAPLE LAKE     SUNNY     70  64  81 SE3       30.05S
$$
MNZ037-044-045-052-053-292100-
   East Central Minnesota

CITY           SKY/WX    TMP DP  RH WIND       PRES   REMARKS
PRINCETON      MOSUNNY   75  63  64 SW6       30.04S
MORA           MOSUNNY   72  59  64 SW7       30.05S
CAMBRIDGE      MOSUNNY   75  61  60 SW5       30.03R
RUSH CITY      SUNNY     74  62  68 CALM      30.03F
MOOSE LAKE     CLOUDY    73  59  60 SW7       30.01S
HINCKLEY       FAIR      73  61  64 SW8       30.04S
CLOQUET        CLOUDY    72  59  64 S6        30.03S
MCGREGOR       CLOUDY    70  61  73 S7        30.03F
$$
MNZ071>073-080-081-089-090-097-098-292100-
   Southwest Minnesota

CITY           SKY/WX    TMP DP  RH WIND       PRES   REMARKS
MONTEVIDEO     CLOUDY    79  64  61 S8        30.02F
GRANITE FALLS  CLOUDY    74  64  69 SE7       30.03F
CANBY          PTSUNNY   78  62  58 S7        30.01F
MARSHALL       PTSUNNY   77  61  57 SW8       30.03F
REDWOOD FALLS  MOSUNNY   73  62  68 S7        30.03S
OLIVIA         PTSUNNY   70  59  68 S7        30.03S
PIPESTONE      PTSUNNY   73  64  73 S8        30.04F
WINDOM         SUNNY     75  63  64 CALM      30.05S
WORTHINGTON    SUNNY     72  63  73 SW7       30.06S
JACKSON        MOSUNNY   73  64  73 S3        30.06S
TRACY          MOSUNNY   75  64  70 S5        30.04S
SLAYTON        MOSUNNY   74  64  71 CALM      30.06S
$$
MNZ065>067-074>077-082>085-091>093-292100-
   South Central Minnesota

CITY           SKY/WX    TMP DP  RH WIND       PRES   REMARKS
MANKATO        CLOUDY    64  59  82 CALM      30.05F
NEW ULM        SUNNY     70  63  78 SE6       30.04F
ST JAMES       SUNNY     72  64  78 SE5       30.05F
FAIRMONT       PTSUNNY   66  57  72 S7        30.05F
GLENCOE        PTSUNNY   70  63  79 S6        30.05F
FARIBAULT      SUNNY     72  64  78 CALM      30.05F
OWATONNA       SUNNY     73  63  68 SW3       30.05S
WASECA         MOSUNNY   72  63  73 CALM      30.06F
ALBERT LEA     SUNNY     72  63  73 S3        30.05F
$$
MNZ078>079-086>088-094>096-292100-
   Southeast Minnesota

CITY           SKY/WX    TMP DP  RH WIND       PRES   REMARKS
ROCHESTER      SUNNY     74  65  73 CALM      30.06S
RED WING       SUNNY     73  61  64 CALM      30.04F
STANTON        MOSUNNY   74  63  67 CALM      30.03F
DODGE CENTER   MOSUNNY   72  61  68 CALM      30.06S
WINONA         CLOUDY    70  61  73 SE5       30.06R
AUSTIN         SUNNY     73  63  68 CALM      30.05F
PRESTON        MOSUNNY   70  60  71 CALM      30.07S
$$
ABBREVIATIONS USED IN REMARKS
   TC - TEMPERATURES IN CELSIUS
  WCI - WIND CHILL INDEX
   HX - HEAT INDEX
  VSB - VISIBILITY
$$


USA.gov is the U.S. government's official web portal to all federal, state and local government web resources and services.